CZ-2C DEB

Satellite information

Favourite Embed

Satellite Type and Status

DEBRISIN ORBIT

Key statistics

Satellite CZ-2C DEB at a glance.

Uptime

4116

Days in orbit

Revolutions

≈ 14.3

Per day

Orbit

SSO

Sun Synchronous Orbit

Inclination

98.1

Latest

Satellite identification and parameters

Extended collection of information and parameters for CZ-2C DEB.

Object identification

Identified? True

Debris? True

Object name: CZ-2C DEB

International designator: 2014-014D

Object number (NORAD): 39627

Object ID (CCSDS): 39627

Country: PEOPLES REPUBLIC OF CHINA (PRC)

Current information (Y/N): Y

RCS size: SMALL

Orbital parameters

Period: 100.459 minutes

Inclination: 98.0923 deg

SMA: 7158.467 km

Apoapsis: 891.36 km

Periapsis: 669.303 km

RAAN: 328.1549 deg

Eccentricy: 0.0155101

Argument of periapsis: 262.6814 deg

Mean anomaly: 95.6721 deg

Mean motion: 14.33417621 rev/day

Mean motion (dot): 0.00001912 rev/day2

B* drag term: 0.00061995 1/REarth

Two-line elements (TLE)

Creation date: July 6, 2025, 6:05 p.m.

Reference frame: TEME

Reference center: EARTH

Epoch: July 6, 2025, 9:19 a.m. UTC

TLE line 0: 0 CZ-2C DEB

TLE line 1: 1 39627U 14014D 25187.38863291 .00001912 00000-0 61995-3 0 9996

TLE line 2: 2 39627 98.0923 328.1549 0155101 262.6814 95.6721 14.33417621585420

Live tracking on map

Real-time ground track for satellite CZ-2C DEB.

In-orbit conjunctions

A list of the most updated potential collisions computed for object CZ-2C DEB.

Target Orbit TCA Probability of collision Miss distance Type
FENGYUN 1C DEB SSO 2025-03-16 09:40:06 0.0001206788 214.0 (m) DEBRIS
ERS 1 SSO 2025-01-30 07:36:19 0.002649417 299.0 (m) PAYLOAD
SL-8 R/B LEO 2024-06-17 04:33:21 0.0001248866 233.0 (m) ROCKET BODY

Associated space launch

CZ-2C DEB was lifted into orbit during the mission ‘Long March 2C | Shijian 11-06’, on board a Long March 2 space rocket.

The launch took place on March 31, 2014, 2:46 a.m. from Launch Area 4 (SLS-2 / 603).

For more information about the launch, click the button.

Launch to space Long March 2C | Shijian 11-06
Long March 2C | Shijian 11-06

Agency: N/A

Status: Launch Successful

Launch date: March 31, 2014, 2:46 a.m. UTC

Rocket: Long March 2

Launch pad: Launch Area 4 (SLS-2 / 603)

Location: Jiuquan Satellite Launch Center, People's Republic of China

...

Latest news about this satellite

There are no fresh news available about this satellite. Check back as we update our databases every day.


Newsletter sign-up

Weekly statistics, charts and insights to help you stay on top of the space industry.